Time,TemperatureF,DewpointF,PressureIn,WindDirection,WindDirectionDegrees,WindSpeedMPH,WindSpeedGustMPH,Humidity,HourlyPrecipIn,Conditions,Clouds,dailyrainin,SolarRadiationWatts/m^2,SoftwareType,DateUTC
2013-07-14 00:02:00,57.0,23.0,-100.00,North,7,2.0,7.0,27,0.00,,,0.00,1.000000,,2013-07-14 07:02:00,
2013-07-14 00:11:00,57.0,23.0,-100.00,North,7,2.0,7.0,27,0.00,,,0.00,1.000000,,2013-07-14 07:11:00,
2013-07-14 00:22:00,57.0,23.0,-100.00,North,7,2.0,7.0,27,0.00,,,0.00,1.000000,,2013-07-14 07:22:00,
2013-07-14 00:53:00,55.0,23.0,-100.00,ESE,119,2.0,5.0,29,0.00,,,0.00,1.000000,,2013-07-14 07:53:00,
2013-07-14 01:01:00,55.0,23.0,-100.00,ESE,119,2.0,5.0,29,0.00,,,0.00,1.000000,,2013-07-14 08:01:00,
2013-07-14 01:11:00,55.0,23.0,-100.00,ESE,119,2.0,5.0,29,0.00,,,0.00,1.000000,,2013-07-14 08:11:00,
2013-07-14 01:22:00,55.0,23.0,-100.00,ESE,119,2.0,5.0,29,0.00,,,0.00,1.000000,,2013-07-14 08:22:00,
2013-07-14 01:53:00,54.0,23.0,-100.00,East,99,1.0,4.0,30,0.00,,,0.00,1.000000,,2013-07-14 08:53:00,
2013-07-14 02:01:00,54.0,23.0,-100.00,East,99,1.0,4.0,30,0.00,,,0.00,1.000000,,2013-07-14 09:01:00,
2013-07-14 02:11:00,54.0,23.0,-100.00,East,99,1.0,4.0,30,0.00,,,0.00,1.000000,,2013-07-14 09:11:00,
2013-07-14 02:22:00,54.0,23.0,-100.00,East,99,1.0,4.0,30,0.00,,,0.00,1.000000,,2013-07-14 09:22:00,
2013-07-14 02:53:00,53.0,22.0,-100.00,East,79,1.0,4.0,30,0.00,,,0.00,1.000000,,2013-07-14 09:53:00,
2013-07-14 03:01:00,53.0,22.0,-100.00,East,79,1.0,4.0,30,0.00,,,0.00,1.000000,,2013-07-14 10:01:00,
2013-07-14 03:11:00,53.0,22.0,-100.00,East,79,1.0,4.0,30,0.00,,,0.00,1.000000,,2013-07-14 10:11:00,
2013-07-14 03:21:00,53.0,22.0,-100.00,East,79,1.0,4.0,30,0.00,,,0.00,1.000000,,2013-07-14 10:21:00,
2013-07-14 08:53:00,61.0,32.0,-100.00,SW,235,2.0,3.0,33,0.00,,,0.00,347.000000,,2013-07-14 15:53:00,
2013-07-14 09:01:00,61.0,32.0,-100.00,SW,235,2.0,3.0,33,0.00,,,0.00,347.000000,,2013-07-14 16:01:00,
2013-07-14 09:11:00,61.0,32.0,-100.00,SW,235,2.0,3.0,33,0.00,,,0.00,347.000000,,2013-07-14 16:11:00,
2013-07-14 09:22:00,61.0,32.0,-100.00,SW,235,2.0,3.0,33,0.00,,,0.00,347.000000,,2013-07-14 16:22:00,
2013-07-14 10:02:00,69.0,31.0,-100.00,WSW,244,3.0,5.0,24,0.00,,,0.00,530.000000,,2013-07-14 17:02:00,
2013-07-14 10:11:00,69.0,31.0,-100.00,WSW,244,3.0,5.0,24,0.00,,,0.00,530.000000,,2013-07-14 17:11:00,
2013-07-14 10:22:00,69.0,31.0,-100.00,WSW,244,3.0,5.0,24,0.00,,,0.00,530.000000,,2013-07-14 17:22:00,
2013-07-14 10:53:00,73.0,31.0,-100.00,SSW,203,4.0,7.0,21,0.00,,,0.00,694.000000,,2013-07-14 17:53:00,
2013-07-14 11:01:00,73.0,31.0,-100.00,SSW,203,4.0,7.0,21,0.00,,,0.00,694.000000,,2013-07-14 18:01:00,
2013-07-14 11:11:00,73.0,31.0,-100.00,SSW,203,4.0,7.0,21,0.00,,,0.00,694.000000,,2013-07-14 18:11:00,
2013-07-14 11:21:00,73.0,31.0,-100.00,SSW,203,4.0,7.0,21,0.00,,,0.00,694.000000,,2013-07-14 18:21:00,
2013-07-14 11:52:00,80.0,33.0,-100.00,SW,225,4.0,6.0,18,0.00,,,0.00,828.000000,,2013-07-14 18:52:00,
2013-07-14 12:01:00,80.0,33.0,-100.00,SW,225,4.0,6.0,18,0.00,,,0.00,828.000000,,2013-07-14 19:01:00,
2013-07-14 12:11:00,80.0,33.0,-100.00,SW,225,4.0,6.0,18,0.00,,,0.00,828.000000,,2013-07-14 19:11:00,
2013-07-14 12:21:00,80.0,33.0,-100.00,SW,225,4.0,6.0,18,0.00,,,0.00,828.000000,,2013-07-14 19:21:00,
2013-07-14 12:53:00,83.0,34.0,-100.00,SSE,161,4.0,10.0,17,0.00,,,0.00,914.000000,,2013-07-14 19:53:00,
2013-07-14 13:01:00,83.0,34.0,-100.00,SSE,161,4.0,10.0,17,0.00,,,0.00,914.000000,,2013-07-14 20:01:00,
2013-07-14 13:11:00,83.0,34.0,-100.00,SSE,161,4.0,10.0,17,0.00,,,0.00,914.000000,,2013-07-14 20:11:00,
2013-07-14 13:22:00,83.0,34.0,-100.00,SSE,161,4.0,10.0,17,0.00,,,0.00,914.000000,,2013-07-14 20:22:00,
2013-07-14 13:53:00,86.0,38.0,-100.00,SW,230,6.0,14.0,18,0.00,,,0.00,953.000000,,2013-07-14 20:53:00,
2013-07-14 14:01:00,86.0,38.0,-100.00,SW,230,6.0,14.0,18,0.00,,,0.00,953.000000,,2013-07-14 21:01:00,
2013-07-14 14:11:00,86.0,38.0,-100.00,SW,230,6.0,14.0,18,0.00,,,0.00,953.000000,,2013-07-14 21:11:00,
2013-07-14 14:22:00,86.0,38.0,-100.00,SW,230,6.0,14.0,18,0.00,,,0.00,953.000000,,2013-07-14 21:22:00,
2013-07-14 14:52:00,88.0,33.0,-100.00,WSW,238,6.0,15.0,14,0.00,,,0.00,948.000000,,2013-07-14 21:52:00,
2013-07-14 15:01:00,88.0,33.0,-100.00,WSW,238,6.0,15.0,14,0.00,,,0.00,948.000000,,2013-07-14 22:01:00,
2013-07-14 15:11:00,88.0,33.0,-100.00,WSW,238,6.0,15.0,14,0.00,,,0.00,948.000000,,2013-07-14 22:11:00,
2013-07-14 15:22:00,88.0,33.0,-100.00,WSW,238,6.0,15.0,14,0.00,,,0.00,948.000000,,2013-07-14 22:22:00,
2013-07-14 15:53:00,88.0,35.0,-100.00,SW,225,6.0,13.0,15,0.00,,,0.00,897.000000,,2013-07-14 22:53:00,
2013-07-14 16:01:00,88.0,35.0,-100.00,SW,225,6.0,13.0,15,0.00,,,0.00,897.000000,,2013-07-14 23:01:00,
2013-07-14 16:11:00,88.0,35.0,-100.00,SW,225,6.0,13.0,15,0.00,,,0.00,897.000000,,2013-07-14 23:11:00,
2013-07-14 16:22:00,88.0,35.0,-100.00,SW,225,6.0,13.0,15,0.00,,,0.00,897.000000,,2013-07-14 23:22:00,
2013-07-14 16:53:00,91.0,35.0,-100.00,WSW,243,5.0,10.0,14,0.00,,,0.00,793.000000,,2013-07-14 23:53:00,
2013-07-14 17:02:00,91.0,35.0,-100.00,WSW,243,5.0,10.0,14,0.00,,,0.00,793.000000,,2013-07-15 00:02:00,
2013-07-14 17:11:00,91.0,35.0,-100.00,WSW,243,5.0,10.0,14,0.00,,,0.00,793.000000,,2013-07-15 00:11:00,
2013-07-14 17:22:00,91.0,35.0,-100.00,WSW,243,5.0,10.0,14,0.00,,,0.00,793.000000,,2013-07-15 00:22:00,
2013-07-14 17:53:00,87.0,35.0,-100.00,NNE,31,3.0,13.0,16,0.00,,,0.00,653.000000,,2013-07-15 00:53:00,
2013-07-14 18:01:00,87.0,35.0,-100.00,NNE,31,3.0,13.0,16,0.00,,,0.00,653.000000,,2013-07-15 01:01:00,
2013-07-14 18:11:00,87.0,35.0,-100.00,NNE,31,3.0,13.0,16,0.00,,,0.00,653.000000,,2013-07-15 01:11:00,
2013-07-14 18:22:00,87.0,35.0,-100.00,NNE,31,3.0,13.0,16,0.00,,,0.00,653.000000,,2013-07-15 01:22:00,
2013-07-14 18:53:00,84.0,36.0,-100.00,North,358,4.0,12.0,18,0.00,,,0.00,476.000000,,2013-07-15 01:53:00,
2013-07-14 19:02:00,84.0,36.0,-100.00,North,358,4.0,12.0,18,0.00,,,0.00,476.000000,,2013-07-15 02:02:00,
2013-07-14 19:11:00,84.0,36.0,-100.00,North,358,4.0,12.0,18,0.00,,,0.00,476.000000,,2013-07-15 02:11:00,
2013-07-14 19:22:00,84.0,36.0,-100.00,North,358,4.0,12.0,18,0.00,,,0.00,476.000000,,2013-07-15 02:22:00,
2013-07-14 19:53:00,78.0,39.0,-100.00,NNW,335,5.0,15.0,25,0.00,,,0.00,281.000000,,2013-07-15 02:53:00,
2013-07-14 20:02:00,78.0,39.0,-100.00,NNW,335,5.0,15.0,25,0.00,,,0.00,281.000000,,2013-07-15 03:02:00,
2013-07-14 20:11:00,78.0,39.0,-100.00,NNW,335,5.0,15.0,25,0.00,,,0.00,281.000000,,2013-07-15 03:11:00,
2013-07-14 20:21:00,78.0,39.0,-100.00,NNW,335,5.0,15.0,25,0.00,,,0.00,281.000000,,2013-07-15 03:21:00,
2013-07-14 20:53:00,72.0,41.0,-100.00,NNW,344,3.0,12.0,33,0.00,,,0.00,33.000000,,2013-07-15 03:53:00,
2013-07-14 21:01:00,72.0,41.0,-100.00,NNW,344,3.0,12.0,33,0.00,,,0.00,33.000000,,2013-07-15 04:01:00,
2013-07-14 21:11:00,72.0,41.0,-100.00,NNW,344,3.0,12.0,33,0.00,,,0.00,33.000000,,2013-07-15 04:11:00,
2013-07-14 21:22:00,72.0,41.0,-100.00,NNW,344,3.0,12.0,33,0.00,,,0.00,33.000000,,2013-07-15 04:22:00,
2013-07-14 21:53:00,68.0,41.0,-100.00,NE,39,2.0,7.0,38,0.00,,,0.00,4.000000,,2013-07-15 04:53:00,
2013-07-14 22:02:00,68.0,41.0,-100.00,NE,39,2.0,7.0,38,0.00,,,0.00,4.000000,,2013-07-15 05:02:00,
2013-07-14 22:11:00,68.0,41.0,-100.00,NE,39,2.0,7.0,38,0.00,,,0.00,4.000000,,2013-07-15 05:11:00,
2013-07-14 22:21:00,68.0,41.0,-100.00,NE,39,2.0,7.0,38,0.00,,,0.00,4.000000,,2013-07-15 05:21:00,
2013-07-14 22:43:00,66.0,42.0,-100.00,East,79,1.0,3.0,41,0.00,,,0.00,1.000000,,2013-07-15 05:43:00,
2013-07-14 22:53:00,66.0,42.0,-100.00,East,79,1.0,3.0,41,0.00,,,0.00,1.000000,,2013-07-15 05:53:00,
2013-07-14 23:02:00,66.0,42.0,-100.00,East,79,1.0,3.0,41,0.00,,,0.00,1.000000,,2013-07-15 06:02:00,
2013-07-14 23:11:00,66.0,42.0,-100.00,East,79,1.0,3.0,41,0.00,,,0.00,1.000000,,2013-07-15 06:11:00,
2013-07-14 23:22:00,66.0,42.0,-100.00,East,79,1.0,3.0,41,0.00,,,0.00,1.000000,,2013-07-15 06:22:00,
2013-07-14 23:53:00,63.0,41.0,-100.00,East,90,3.0,6.0,44,0.00,,,0.00,1.000000,,2013-07-15 06:53:00,